Location: Bakov nad Jizerou
(50.4784°N, 14.9394°E)
Time: 07:33:44
(UTC+00:00)

Cosmos 1536 Rocket - Pass Details

Date: 16 June 2021
Orbit: 604 x 633 km, 82.5° (Epoch: 04 August)

Event Time Altitude Azimuth Distance (km) Brightness Sun altitude
Exits shadow 20:58:16 15° 171° (S) 1,730 5.3 -11.3°
Maximum altitude 21:01:54 57° 95° (E) 751 3.8 -11.6°
Drops below altitude 10° 21:06:17 10° 18° (NNE) 2,018 6.9 -11.9°
Sets 21:08:33 0° 14° (NNE) 2,926 7.9 -12.1°
